Location: Cheyres
(46.8153°N, 6.7877°E)
Time: 15:03:17
(UTC+00:00)

Cosmos 990 Rocket - Pass Details

Date: 27 September 2021
Orbit: 746 x 769 km, 74.0° (Epoch: 18 October)

Event Time Altitude Azimuth Distance (km) Brightness Sun altitude
Rises 04:50:22 0° 341° (NNW) 3,240 7.1 -7.0°
Reaches altitude 10° 04:52:50 10° 347° (NNW) 2,313 6.4 -6.6°
Maximum altitude 04:57:56 50° 63° (ENE) 971 5.1 -5.7°
Drops below altitude 10° 05:03:02 10° 139° (SE) 2,306 7.1 -4.8°
Sets 05:05:28 0° 144° (SE) 3,229 7.8 -4.4°
